Track COSMOS 2507 now! 10-day predictions COSMOS 2507 is classified as:
1 40920U 15050A 25181.63033118 .00000042 00000-0 23181-3 0 9992 2 40920 82.4933 298.5186 0009742 43.2114 316.9728 12.42912540443188